Find Starlink 38232

NORAD ID: 100260 Int'l Des: 2026-181 Owner: SPXS Country: US Constellation: starlink operational

Current View

Loading 3D Globe...

About Starlink 38232

Starlink 38232 (NORAD 100260) is a starlink constellation satellite launched Aug 8, 2026 by SPXS of US. with a mass of 575.00 kg.

Upcoming Passes

Passes for default location (London). Set your location on the main map for personalized predictions.

Altitude History

Loading altitude history...

Two-Line Element Set

1 A0260U 26181Q 26262.64989336 .00105929 00000-0 70190-3 0 9998
2 A0260 97.2841 306.1554 0002066 82.3637 277.7863 15.75201773 7823
Epoch: Sep 19, 2026 • Age: 25 hours

Current Status

Altitude 349.4 km
Apogee / Perigee N/A
Velocity 7.70 km/s
Sub-Earth Point 44.36°N, 113.63°W
Launch Date Aug 8, 2026
Age 0.1 years
Type internet

Technical Details

Classification Payload
Mass 575.00 kg
Dry Mass 530.00 kg
Length 0.30 m
Span 29.00 m
Shape ? Box + pan
Manufacturer SPXS
Bus Type Starlink V2MO
Phase Status In Orbit
Owner/State SPXS/US

Most Searched